Wind_Speed
5 6 6 5 1 2 4 4 5 3 1 7 5 10 4 4 2 1 1 3 2 1 3 6 8 8 8 9 10 9 7 7 7 5 4 5 7 10 12 13 12 11 10 9 7 5 4 4 4
6 6 6 6 4 8 8 7 3 4 5 8 6 9 4 2 3 5 6 6 4 1 1 3 5 6 9 11 12 12 12 11 11 10 9 8 7 8 8 10 10 10 9 9 7 6 4 4 5
6 6 6 3 6 8 5 7 3 2 3 4 6 6 7 5 5 8 8 6 4 2 0 2 4 5 8 10 13 14 15 15 15 14 13 12 10 9 8 7 7 8 8 8 7 6 6 5 4
6 6 8 5 4 3 6 3 9 2 2 3 7 6 7 7 9 8 8 6 3 1 1 4 4 5 7 8 11 15 17 18 18 17 17 15 15 14 12 9 8 7 6 6 5 5 5 5 5
6 7 7 6 5 5 8 8 7 5 8 5 8 9 11 11 11 10 9 7 4 5 4 3 2 2 4 5 6 11 16 19 20 20 20 20 18 17 16 14 12 10 8 7 6 4 3 3 4
5 6 7 8 5 4 7 10 10 8 9 7 9 9 12 13 14 13 12 11 8 6 6 6 6 4 3 5 6 6 9 14 19 23 24 24 23 22 20 18 17 16 13 10 9 7 6 5 5
7 5 7 6 6 4 8 10 12 10 10 13 11 8 9 13 16 17 16 16 14 11 9 9 10 9 9 9 9 10 12 13 15 20 24 26 27 27 25 23 21 20 18 16 13 11 10 9 8
10 6 7 5 4 5 8 8 8 10 7 14 14 8 10 18 17 19 20 20 19 18 17 16 15 14 13 11 10 11 11 12 15 18 22 26 28 29 29 28 26 25 23 21 19 16 14 12 12
9 5 4 4 2 6 7 7 8 9 12 15 17 18 21 20 20 20 21 22 22 21 22 22 21 20 19 16 14 14 13 12 13 15 19 25 29 31 32 31 30 28 27 26 25 22 19 17 16
9 6 5 9 9 6 9 10 12 11 12 15 17 24 25 24 25 25 26 26 26 26 25 26 26 25 25 23 22 19 19 19 17 17 20 22 28 32 34 34 33 31 31 30 30 28 26 23 20
12 7 12 15 15 13 13 14 14 15 12 14 21 24 25 30 31 29 31 32 32 31 30 31 30 30 29 29 29 27 24 24 23 21 21 20 23 30 34 36 35 35 34 34 33 32 29 27 26
13 14 14 16 13 14 15 18 15 17 17 19 19 21 24 28 33 38 37 35 36 35 36 35 35 34 33 34 33 33 32 30 27 22 19 18 20 24 30 37 38 37 38 37 37 35 33 31 29
13 16 14 15 14 16 17 18 18 15 17 17 18 20 24 27 29 34 38 41 42 42 42 42 40 39 38 35 36 34 33 33 29 26 21 19 19 23 25 29 37 41 40 40 40 38 37 34 33
16 15 15 14 15 17 16 16 16 19 17 14 15 17 21 27 25 26 28 31 34 39 42 42 42 42 40 37 34 36 35 34 31 29 25 23 22 23 25 27 31 37 42 42 41 42 41 39 38
15 13 12 14 18 18 16 12 12 16 15 12 12 19 28 28 30 30 31 32 32 33 34 35 38 38 36 36 35 36 37 35 33 30 29 28 25 22 22 23 26 35 39 42 44 44 42 42 43
15 15 7 11 10 16 13 12 10 17 14 14 18 27 34 32 30 29 28 27 28 28 28 28 27 30 34 35 35 34 36 37 35 32 29 27 23 22 20 19 21 22 26 37 40 43 44 45 46
11 10 9 8 16 10 11 12 13 19 22 25 24 25 27 29 29 28 28 28 28 29 29 28 26 24 25 31 35 33 36 36 35 34 30 26 24 22 20 19 20 22 26 29 33 40 43 46 46
9 8 8 10 8 10 16 19 17 16 24 24 23 24 24 27 27 27 28 28 29 29 29 28 26 24 22 22 27 29 34 36 36 34 33 32 29 25 24 23 23 25 26 29 34 38 38 40 47
16 12 15 15 15 16 13 16 16 20 22 24 22 18 21 22 23 26 26 26 27 27 28 27 26 25 23 21 23 27 31 35 38 39 38 36 33 29 26 25 27 29 31 30 31 37 40 40 40
16 14 17 15 11 13 14 18 17 23 22 15 12 20 19 19 23 22 24 25 27 27 28 28 28 28 24 23 24 27 31 35 37 38 38 38 35 31 29 29 28 30 34 32 31 34 37 40 40
13 15 14 14 14 15 13 20 14 16 13 13 20 16 19 24 21 23 26 27 27 26 26 23 25 25 25 23 25 28 31 34 37 35 35 35 34 34 32 31 30 31 33 31 31 33 36 38 39
14 13 12 10 9 8 4 8 13 17 16 20 18 17 18 20 23 25 25 24 23 21 21 18 18 25 26 24 26 29 31 28 35 37 34 33 34 34 32 29 31 34 35 35 34 35 35 38 37
11 13 6 8 10 14 14 11 10 17 16 14 13 12 14 18 17 15 12 11 12 14 17 21 26 29 26 28 29 33 35 31 33 36 38 35 31 35 33 31 37 39 41 35 36 39 38 38 38
10 6 6 8 9 10 16 17 9 11 12 12 12 13 13 9 6 6 10 13 14 15 16 18 20 23 26 28 35 34 34 38 38 40 40 42 35 37 32 36 39 41 40 38 37 39 40 39 39
11 7 5 6 5 6 3 11 22 13 16 15 14 14 8 5 2 6 7 9 11 12 14 16 18 20 19 21 28 31 35 38 37 42 45 51 40 29 36 37 43 41 41 39 37 37 39 38 39
16 15 9 6 7 7 4 10 6 14 15 19 18 13 10 7 4 5 8 8 9 12 14 16 18 19 20 18 17 15 19 26 29 33 29 33 40 35 36 42 39 40 39 41 41 39 39 39 38
12 16 18 20 18 12 20 21 23 26 21 15 16 11 12 9 5 5 6 8 10 13 16 17 20 21 20 20 20 17 17 18 16 19 21 22 25 28 35 34 33 35 36 38 39 39 39 39 38
14 10 6 12 7 14 14 19 20 19 17 14 15 13 14 12 10 7 8 10 13 16 19 22 24 21 21 20 21 22 21 22 20 21 20 20 22 26 27 28 30 31 32 34 34 35 37 36 36
19 18 13 13 17 10 14 16 11 8 17 13 14 16 15 15 13 12 12 13 15 17 21 24 26 23 21 21 22 21 20 22 19 19 22 23 20 22 24 27 26 25 27 29 30 30 32 33 34
25 23 24 22 18 16 18 28 21 22 17 16 19 20 18 17 16 17 15 16 17 20 23 25 26 23 20 20 19 18 16 16 13 14 12 13 12 14 18 18 18 20 21 23 24 26 27 30 30
Wind_Direction
272 270 276 292 321 186 170 147 102 32 147 129 117 128 156 152 187 88 128 93 53 282 256 253 251 256 260 259 253 249 247 242 242 244 276 319 339 353 8 10 14 19 20 15 8 358 330 315 305
258 250 256 268 238 232 151 156 113 123 155 146 129 117 84 156 125 124 121 101 102 78 266 238 246 260 265 266 262 258 252 253 254 255 257 270 295 319 342 356 3 12 16 19 20 16 358 339 316
254 235 236 235 242 261 173 168 124 138 134 157 173 153 140 148 152 146 130 121 128 136 280 290 280 268 261 260 261 261 259 258 261 262 263 266 270 281 296 317 340 355 2 9 17 22 17 358 328
248 237 245 229 231 150 150 176 200 356 246 177 193 197 175 167 162 164 163 152 149 185 314 323 314 300 277 264 261 259 260 260 260 264 266 265 265 267 272 280 297 318 331 338 356 13 18 4 340
250 241 236 239 214 197 210 222 229 240 240 219 202 205 195 191 184 183 188 193 210 236 244 262 289 350 339 337 298 276 269 266 264 261 263 265 265 265 266 268 274 281 292 301 312 333 343 337 332
250 240 247 245 211 209 224 224 238 239 242 237 213 196 218 208 204 202 205 212 223 243 252 249 251 250 276 304 301 290 282 276 273 271 268 265 265 265 265 265 266 268 270 276 286 293 295 292 303
224 242 265 256 232 234 225 233 231 237 236 236 230 194 216 225 219 221 220 224 224 219 222 237 249 256 265 274 276 277 277 274 271 267 266 267 267 264 263 261 261 262 263 263 266 269 272 276 282
227 223 265 253 231 215 243 230 231 230 237 237 234 229 225 230 232 234 236 237 239 236 236 244 246 251 255 260 268 280 289 276 272 272 266 262 260 261 261 260 258 259 261 260 259 258 258 262 266
227 223 260 258 226 228 244 237 233 236 252 246 246 249 244 240 239 240 242 246 248 248 255 262 263 260 257 261 272 285 292 289 287 282 279 269 263 260 259 259 258 258 259 260 259 257 256 255 257
208 225 235 234 233 220 259 264 261 250 265 261 257 253 255 252 251 246 245 247 251 254 259 263 266 272 275 275 273 277 284 290 294 293 298 287 267 259 256 256 256 255 255 256 258 258 257 256 259
239 234 248 257 259 256 262 269 271 270 268 266 249 253 256 258 257 253 252 252 254 255 257 263 265 268 271 274 279 279 279 277 277 279 289 295 280 266 258 254 253 254 254 255 256 257 258 259 260
252 255 262 265 278 284 283 276 270 277 279 265 267 262 256 253 255 257 257 259 259 260 261 261 262 264 266 266 266 271 276 276 281 274 279 281 277 273 269 261 253 252 253 254 254 256 257 257 258
253 262 268 274 281 279 284 289 291 286 274 277 272 271 270 264 255 255 258 259 261 263 265 265 264 265 265 262 261 261 258 267 271 270 269 275 274 271 272 269 262 255 251 252 252 253 254 254 254
264 262 269 280 284 285 290 285 290 283 282 277 275 275 270 265 269 269 266 264 262 264 266 267 268 269 269 265 262 260 258 259 261 266 265 265 267 270 269 264 259 259 258 255 254 253 252 252 252
264 270 286 283 282 275 282 289 270 275 276 274 272 273 274 282 283 280 278 276 274 272 271 267 266 264 264 264 259 256 257 260 262 258 257 263 271 270 265 266 263 254 254 259 258 257 257 256 255
274 281 262 263 270 275 273 261 253 280 280 258 272 279 281 285 285 285 285 282 281 279 277 276 272 265 261 258 257 254 257 259 258 254 254 261 268 266 256 262 271 271 265 260 260 257 257 259 258
271 261 245 258 262 262 274 256 271 271 273 272 279 278 281 285 287 288 289 289 286 283 281 281 281 275 262 253 252 248 247 249 251 250 250 256 260 260 263 268 276 283 280 272 265 260 260 257 257
260 253 253 248 268 278 281 280 278 288 280 285 282 280 279 281 284 289 291 291 292 291 289 286 282 279 271 258 249 247 245 244 247 249 250 253 255 250 257 265 275 282 281 280 270 264 261 259 257
258 261 263 264 274 287 277 279 284 274 282 281 276 273 277 277 289 291 292 295 296 296 297 296 292 288 281 259 236 241 251 248 249 251 252 253 252 253 257 263 273 282 292 277 269 265 265 260 258
261 263 273 279 276 279 281 280 276 281 285 264 266 291 281 287 294 290 292 293 292 292 291 290 288 283 282 271 257 252 251 255 254 255 255 253 253 256 260 265 272 283 291 280 271 263 261 261 258
249 252 267 273 279 288 291 285 245 270 256 262 286 284 287 298 291 291 290 285 281 279 278 281 283 286 278 275 271 261 261 259 261 258 256 254 257 259 257 264 274 283 286 281 276 270 264 260 256
251 259 265 267 286 275 313 282 258 234 249 268 277 283 295 296 295 293 290 290 284 285 286 292 304 287 297 279 272 273 268 264 262 262 253 253 256 257 259 266 276 280 284 280 276 274 270 266 260
245 262 248 258 272 285 270 262 268 211 242 272 259 277 290 295 286 292 307 326 330 316 315 304 293 294 293 284 271 270 270 262 261 254 255 248 252 258 265 271 271 277 282 274 280 275 270 269 266
218 250 268 279 276 262 260 227 264 212 224 255 265 297 302 288 306 345 3 7 1 349 336 322 315 304 292 283 273 261 269 262 265 252 254 249 245 248 266 272 276 279 280 277 278 274 271 268 268
206 206 257 248 216 266 227 238 247 243 280 283 291 305 279 282 313 357 359 352 343 345 351 350 345 334 321 298 280 276 271 269 265 270 259 256 248 253 258 270 279 279 277 279 279 275 272 269 267
214 215 227 257 261 276 227 247 252 233 284 293 291 287 261 254 299 342 342 344 340 338 337 333 331 330 329 312 303 298 294 277 272 273 276 273 252 252 255 274 275 277 280 280 279 276 272 270 268
202 220 238 255 266 273 258 263 270 276 279 287 288 268 246 249 278 310 326 326 325 326 327 327 324 318 315 306 303 292 291 286 287 289 284 278 271 266 276 275 278 279 279 280 277 273 268 267 266
207 211 183 209 239 242 252 258 268 275 305 291 282 250 239 244 263 268 287 295 307 315 318 320 322 318 307 301 296 294 287 283 280 289 291 285 278 279 284 289 288 287 286 282 279 276 271 266 265
209 212 222 236 242 266 268 269 260 265 290 291 276 251 240 245 255 252 271 286 298 307 313 319 321 318 313 307 302 300 299 292 296 285 287 292 298 300 303 301 302 298 291 288 285 278 273 270 265
235 240 236 232 228 242 266 264 272 282 286 291 274 258 243 250 259 253 272 284 300 309 317 321 318 314 312 312 310 308 303 302 308 308 305 305 314 319 309 312 314 309 304 298 291 283 279 273 267
Height
3164 3164 3164 3165 3172 3168 3168 3171 3168 3169 3169 3167 3166 3166 3169 3169 3170 3173 3171 3169 3169 3169 3170 3172 3172 3173 3173 3173 3174 3174 3175 3175 3176 3176 3177 3178 3178 3178 3177 3176 3176 3175 3175 3174 3174 3175 3175 3174 3174
3163 3163 3164 3164 3168 3164 3165 3167 3168 3166 3166 3166 3167 3167 3169 3169 3169 3169 3169 3168 3169 3169 3170 3170 3172 3172 3172 3172 3173 3174 3174 3175 3175 3176 3176 3177 3178 3178 3177 3177 3177 3176 3176 3175 3175 3174 3174 3174 3174
3162 3162 3164 3164 3164 3162 3164 3166 3165 3165 3166 3166 3168 3167 3167 3168 3168 3168 3168 3168 3169 3169 3170 3170 3171 3171 3171 3171 3172 3172 3173 3174 3174 3175 3175 3176 3176 3177 3177 3177 3177 3176 3176 3175 3175 3175 3174 3174 3174
3159 3161 3162 3162 3162 3162 3165 3164 3163 3165 3165 3166 3167 3168 3167 3167 3167 3167 3168 3168 3169 3169 3169 3169 3169 3170 3170 3170 3170 3171 3171 3172 3172 3173 3173 3174 3175 3175 3176 3176 3176 3175 3175 3174 3175 3175 3174 3174 3173
3158 3159 3161 3161 3161 3160 3161 3161 3161 3163 3164 3165 3165 3165 3165 3165 3165 3165 3166 3167 3168 3168 3168 3167 3167 3168 3169 3169 3169 3169 3169 3170 3170 3170 3170 3171 3172 3172 3173 3174 3174 3174 3174 3173 3173 3174 3174 3173 3173
3158 3158 3159 3157 3159 3159 3159 3160 3159 3160 3163 3163 3164 3163 3163 3162 3162 3162 3162 3163 3164 3165 3165 3165 3165 3165 3165 3166 3166 3166 3166 3166 3167 3168 3168 3168 3169 3169 3170 3171 3172 3172 3172 3172 3172 3172 3172 3172 3171
3155 3157 3158 3158 3158 3157 3157 3157 3158 3160 3160 3160 3161 3162 3160 3159 3159 3160 3159 3159 3159 3159 3161 3162 3162 3163 3163 3163 3163 3163 3163 3163 3162 3163 3164 3165 3166 3166 3167 3168 3168 3169 3169 3169 3170 3170 3170 3170 3170
3152 3154 3156 3156 3156 3157 3153 3155 3157 3158 3158 3157 3158 3159 3159 3156 3157 3157 3156 3156 3155 3155 3156 3156 3157 3158 3159 3159 3159 3159 3158 3158 3159 3159 3159 3159 3160 3161 3162 3163 3164 3165 3165 3166 3166 3166 3167 3167 3167
3150 3154 3154 3154 3154 3153 3152 3154 3154 3155 3154 3155 3155 3155 3154 3154 3154 3154 3154 3153 3153 3153 3153 3154 3154 3154 3155 3155 3155 3156 3156 3155 3155 3155 3155 3155 3155 3155 3156 3158 3159 3161 3161 3161 3162 3162 3163 3163 3164
3149 3151 3151 3148 3149 3150 3150 3151 3151 3153 3151 3152 3151 3149 3149 3150 3150 3150 3149 3150 3150 3150 3150 3150 3151 3151 3152 3152 3151 3151 3152 3152 3151 3151 3150 3149 3149 3150 3150 3152 3153 3155 3155 3156 3156 3157 3158 3159 3160
3145 3149 3146 3144 3145 3146 3147 3147 3147 3147 3148 3148 3146 3145 3145 3144 3142 3143 3144 3144 3145 3146 3146 3145 3146 3146 3146 3147 3147 3146 3146 3146 3145 3145 3144 3144 3143 3144 3145 3145 3147 3148 3149 3149 3150 3151 3153 3154 3156
3143 3142 3142 3141 3141 3142 3142 3141 3143 3143 3142 3141 3140 3140 3139 3138 3136 3136 3136 3137 3137 3139 3139 3139 3139 3139 3140 3140 3140 3140 3140 3139 3140 3139 3138 3137 3137 3137 3139 3139 3140 3140 3142 3143 3144 3145 3147 3148 3150
3138 3136 3137 3137 3137 3137 3136 3136 3136 3138 3136 3135 3136 3135 3132 3129 3131 3130 3130 3129 3130 3130 3130 3130 3130 3131 3131 3132 3132 3133 3132 3132 3133 3133 3133 3132 3132 3132 3132 3133 3133 3134 3135 3136 3137 3139 3140 3142 3143
3133 3133 3134 3134 3133 3131 3132 3131 3131 3130 3131 3131 3131 3129 3126 3122 3125 3125 3125 3124 3123 3122 3122 3121 3121 3121 3122 3123 3123 3124 3124 3124 3125 3125 3125 3125 3125 3125 3125 3126 3126 3127 3129 3129 3130 3131 3133 3135 3135
3129 3130 3130 3130 3129 3127 3129 3128 3127 3126 3126 3126 3126 3124 3118 3120 3118 3118 3117 3116 3116 3115 3114 3113 3113 3113 3113 3113 3115 3115 3116 3116 3116 3116 3117 3116 3116 3117 3118 3119 3119 3119 3120 3122 3123 3124 3125 3126 3127
3127 3127 3128 3126 3126 3122 3126 3128 3125 3122 3123 3124 3122 3118 3113 3112 3111 3110 3109 3108 3107 3106 3105 3105 3104 3104 3104 3105 3106 3107 3108 3107 3108 3108 3108 3108 3109 3109 3110 3111 3112 3113 3112 3113 3114 3115 3116 3116 3118
3122 3124 3125 3124 3122 3120 3121 3120 3120 3118 3116 3117 3116 3113 3109 3106 3104 3103 3101 3100 3099 3098 3098 3097 3096 3096 3096 3097 3099 3099 3099 3099 3100 3100 3100 3102 3103 3103 3103 3104 3105 3105 3106 3106 3105 3106 3106 3107 3108
3119 3120 3120 3122 3120 3116 3115 3114 3112 3112 3109 3109 3109 3107 3106 3102 3100 3098 3096 3094 3092 3090 3090 3089 3089 3089 3089 3089 3090 3091 3091 3092 3092 3092 3093 3094 3095 3096 3096 3096 3097 3098 3097 3097 3096 3096 3097 3097 3099
3114 3116 3116 3116 3115 3111 3110 3108 3108 3104 3105 3103 3102 3101 3100 3099 3096 3093 3090 3088 3086 3084 3082 3080 3079 3079 3080 3082 3083 3083 3083 3084 3085 3085 3086 3087 3089 3089 3088 3088 3089 3089 3089 3087 3086 3086 3086 3087 3089
3110 3112 3114 3111 3108 3107 3105 3102 3099 3095 3095 3098 3098 3096 3095 3094 3092 3089 3086 3084 3081 3079 3077 3075 3074 3073 3073 3074 3075 3076 3075 3075 3076 3077 3078 3079 3081 3081 3081 3081 3081 3081 3080 3079 3078 3077 3077 3077 3080
3105 3107 3110 3108 3105 3103 3100 3096 3092 3089 3091 3093 3093 3092 3091 3089 3087 3085 3083 3080 3077 3075 3073 3071 3069 3067 3066 3067 3068 3069 3069 3068 3068 3068 3070 3071 3072 3073 3073 3072 3072 3072 3072 3071 3069 3068 3067 3067 3069
3102 3102 3102 3103 3104 3102 3099 3093 3089 3088 3087 3088 3088 3088 3086 3084 3082 3079 3076 3073 3071 3069 3067 3066 3064 3063 3062 3061 3061 3061 3061 3060 3061 3062 3062 3063 3064 3065 3065 3063 3063 3063 3063 3062 3060 3059 3058 3057 3059
3096 3096 3098 3099 3098 3098 3096 3095 3084 3083 3084 3083 3083 3084 3082 3080 3076 3073 3070 3067 3065 3063 3061 3060 3058 3057 3055 3054 3055 3055 3055 3054 3054 3054 3056 3055 3054 3056 3056 3054 3055 3053 3053 3053 3051 3049 3048 3048 3048
3089 3093 3095 3095 3095 3090 3086 3089 3075 3078 3079 3079 3078 3077 3076 3074 3071 3068 3065 3062 3060 3058 3056 3054 3051 3049 3047 3047 3048 3047 3047 3047 3046 3046 3045 3046 3045 3045 3045 3045 3045 3044 3043 3042 3041 3039 3039 3037 3037
3086 3090 3091 3089 3086 3080 3082 3082 3074 3074 3074 3074 3073 3072 3072 3070 3068 3065 3063 3061 3059 3057 3055 3053 3049 3045 3043 3041 3039 3039 3038 3037 3037 3037 3036 3035 3035 3034 3036 3036 3036 3035 3034 3033 3031 3031 3029 3028 3027
3081 3086 3085 3081 3076 3076 3080 3073 3067 3067 3068 3068 3068 3068 3067 3066 3064 3063 3061 3060 3058 3056 3054 3051 3047 3044 3041 3038 3036 3033 3032 3029 3028 3028 3028 3026 3027 3025 3029 3029 3027 3026 3024 3022 3021 3020 3019 3018 3018
3079 3080 3083 3083 3083 3082 3072 3067 3063 3062 3063 3063 3063 3062 3063 3062 3060 3059 3058 3057 3056 3054 3052 3048 3044 3041 3037 3035 3033 3031 3029 3026 3023 3022 3022 3020 3019 3020 3022 3020 3018 3016 3013 3010 3009 3009 3009 3008 3008
3073 3075 3077 3080 3075 3068 3058 3058 3057 3057 3059 3059 3058 3058 3059 3059 3057 3056 3055 3054 3052 3050 3049 3045 3041 3037 3034 3031 3029 3027 3025 3023 3019 3018 3017 3015 3014 3014 3013 3009 3007 3005 3002 3001 2999 2998 2998 2998 2997
3067 3067 3070 3071 3069 3062 3054 3052 3051 3054 3055 3055 3055 3054 3055 3054 3053 3052 3051 3050 3049 3047 3045 3041 3037 3034 3030 3027 3024 3021 3019 3018 3016 3013 3011 3009 3006 3005 3003 3001 2998 2996 2994 2992 2990 2989 2989 2988 2987
3059 3060 3061 3062 3061 3060 3058 3048 3049 3050 3051 3051 3051 3049 3050 3050 3049 3048 3047 3045 3044 3042 3039 3037 3033 3030 3028 3025 3022 3018 3015 3014 3011 3010 3007 3005 3002 2998 2998 2996 2993 2991 2988 2985 2983 2981 2979 2979 2978